Starlink 6320

operational
NORAD ID: 57336 Int'l Des: 2023-099 Owner: SPXS Country: US Constellation: starlink
LEOCIRCULAR

About Starlink 6320

Description loading...

Live Position

Loading 3D Globe...

Upcoming Passes

Altitude History

Altitude vs Time

uPlot chart will show altitude changes over time

Two-Line Element Set

1 57336U 23099J 25304.80755586 .00000612 00000-0 60353-4 0 9995
2 57336 43.0027 228.8985 0001254 270.9296 89.1403 15.02530112126735
Epoch: Oct 31, 2025 • Age: 15 hours

Current Status

Altitude 569.9 km
Velocity 7.58 km/s
Sub-Earth Point -38.91°S, 98.66°W
Launch Date Jul 16, 2023
Age 2.2 years
Type internet

Technical Details

Classification Payload
Mass 305.00 kg
Dry Mass 290.00 kg
Total Mass 305.00 kg
Length 0.20 m
Diameter 2.80 m
Span 9.00 m
Shape Box + pan
Manufacturer SPXS
Bus Type Starlink
Phase Status In Orbit
Owner/State SPXS/US

Large Constellations

Loading constellations...